Location: Ottobeuren
(47.9410°N, 10.3007°E)
Time: 17:45:26
(UTC+02:00)

OTV 5 (USA 277) - Visible Passes

Search period start: 17 October 2019 00:00
Search period end: 27 October 2019 00:00
Orbit: 310 x 324 km, 54.5° (Epoch: 08 October)

Date Brightness Start Highest point End Pass type
(mag) Time Alt. Az. Time Alt. Az. Time Alt. Az.
17 Oct ? 06:21:37 28° NW 06:22:54 75° NNE 06:25:38 10° ESE visible
18 Oct ? 05:05:07 13° E 05:05:07 13° E 05:05:31 10° E visible
18 Oct ? 06:36:01 22° W 06:37:26 46° SW 06:40:03 10° SE visible
19 Oct ? 05:19:36 17° E 05:19:36 17° E 05:20:24 10° ESE visible
19 Oct ? 06:50:31 15° W 06:51:49 20° SW 06:53:54 10° S visible
20 Oct ? 05:34:13 17° SE 05:34:13 17° SE 05:35:01 10° SE visible
21 Oct ? 05:48:58 12° SSE 05:48:58 12° SSE 05:49:12 10° SSE visible
